#timestamp,LO_Frequency,Hit,StdDev 
1570302015.4,286047003.4,N
1570302035.3,286047003.4,N
1570302055.1,286047003.4,N
1570302075.8,286047002.9,N
1570302095.7,286047001.8,N
1570302115.5,286047003.6,N
1570302135.4,286047004.0,N
1570302155.2,286047003.2,N
1570302175.0,286047003.8,N
1570302175.9,286047003.8,N
1570302195.8,286047004.2,N
1570302215.6,286047003.5,N
1570302235.4,286047011.9,Y
1570302255.3,286047004.1,P
1570302275.1,286047003.3,P
1570302295.9,286047007.4,P
1570302315.7,286047002.9,N
1570302335.5,286047002.0,N
1570302355.4,286047000.3,N
1570302375.2,286046999.2,N
1570302395.1,286047001.2,N
1570302396.0,286047001.2,N
1570302415.8,286046997.3,N
1570302435.6,286046997.0,N
1570302455.5,286046999.6,N
1570302475.3,286046996.8,N
1570302495.1,286046996.9,N
1570302515.9,286046995.1,N
1570302535.7,286046996.7,N
1570302555.6,286046996.1,N
1570302575.4,286046990.2,Y
1570302595.2,286046993.2,P
1570302615.1,286046993.1,N
1570302616.0,286046993.1,N
1570302635.8,286046990.8,Y
1570302655.7,286046995.7,P
1570302675.5,286046996.8,P
1570302695.3,286047000.0,N
1570302715.2,286047001.0,N
1570302735.0,286047002.7,N
1570302735.9,286047002.7,N
1570302755.8,286046998.3,N
1570302775.6,286046999.5,N
1570302795.4,286046998.6,N
1570302815.3,286046996.0,N
1570302835.1,286046995.8,N
1570302855.8,286046994.1,N
1570302875.7,286046995.2,N
1570302895.5,286046997.8,N
1570302915.4,286046996.7,N
1570302935.2,286047000.7,N
1570302955.0,286046995.0,N
1570302955.9,286046995.0,N
1570302975.8,286046993.7,N
1570302995.6,286046994.3,N
1570303015.4,286046993.6,N
1570303035.3,286046996.3,N
1570303055.1,286046993.8,N
1570303075.9,286046995.7,N
1570303095.7,286046995.3,N
1570303115.5,286046996.8,N
1570303135.4,286046999.0,N
1570303155.2,286047000.9,N
1570303175.0,286046999.9,N
1570303175.9,286046999.9,N
1570303195.8,286047000.9,N
1570303215.6,286047001.2,N
1570303235.5,286047002.7,N
1570303255.3,286047002.4,N
1570303275.1,286047006.0,N
1570303295.9,286047003.5,N
1570303315.7,286047000.0,N
1570303335.5,286046998.3,N
1570303355.4,286046998.7,N
1570303375.2,286047000.1,N
1570303395.1,286047000.6,N
1570303396.0,286047000.6,N
1570303415.8,286046998.5,N
1570303435.6,286046998.4,N
1570303455.5,286047002.7,N
1570303475.3,286046997.2,N
1570303495.1,286046995.3,N
1570303515.9,286046994.8,N
1570303535.7,286046994.8,N
1570303555.6,286046993.5,N
1570303575.4,286046998.0,N
1570303595.2,286046995.6,N
1570303615.1,286046992.1,N
1570303616.0,286046992.1,N
1570303635.8,286046994.3,N
1570303655.7,286046993.4,N
1570303675.5,286046995.9,N
1570303695.3,286046992.1,N
1570303715.2,286046992.9,N
1570303735.9,286046990.4,N
1570303755.7,286046992.3,N
1570303775.6,286046989.0,N
1570303795.4,286046991.2,N
1570303815.2,286046988.7,N
1570303835.1,286046993.2,N
1570303836.0,286046993.2,N
1570303855.8,286046988.6,Y
1570303875.7,286046995.1,P
1570303895.5,286046996.9,P
1570303915.3,286046996.6,P
1570303935.2,286046997.2,Y
1570303955.0,286047001.6,P
1570303955.9,286047001.6,N
1570303975.8,286047003.9,N
1570303995.6,286047003.8,N
1570304015.4,286047004.1,N
1570304035.3,286047001.5,N
1570304055.1,286047004.4,N
1570304075.8,286047004.7,N
1570304095.7,286047006.8,N
1570304115.5,286047010.8,Y
1570304135.4,286047006.4,P
1570304155.2,286047006.3,P
1570304175.0,286047007.3,P
1570304176.0,286047007.3,Y
1570304195.8,286047002.6,P
1570304215.6,286047002.2,N
1570304235.5,286047002.7,N
1570304255.3,286046998.3,N
1570304275.1,286046998.5,N
1570304295.9,286047001.8,N
1570304315.7,286047001.3,N
1570304335.6,286047001.7,N
1570304355.4,286047000.0,N
1570304375.2,286046997.5,N
1570304395.1,286046999.6,N
1570304396.0,286046999.6,N
1570304415.8,286046999.3,N
1570304435.7,286046997.7,N
1570304455.5,286046997.9,N
1570304475.3,286046999.3,N
1570304495.2,286046997.5,N
1570304515.9,286046995.6,N
1570304535.7,286046993.3,N
1570304555.6,286046995.0,N
1570304575.4,286046996.3,N
1570304595.2,286046995.8,N
1570304615.1,286046996.4,N
1570304616.0,286046996.4,N
1570304635.8,286046996.2,N
1570304655.7,286046997.4,N
1570304675.5,286046997.8,N
1570304695.3,286046997.7,N
1570304715.2,286046997.5,N
1570304735.0,286046995.2,N
1570304735.9,286046995.2,N
1570304755.7,286046995.2,N
1570304775.6,286046997.2,N
1570304795.4,286047001.1,N
1570304815.3,286046999.6,N
1570304835.1,286047001.7,N
1570304836.0,286047001.7,N
1570304855.8,286047004.8,N
1570304875.7,286047000.5,N
1570304895.5,286046998.7,N
1570304915.3,286046996.5,N
1570304935.2,286046996.5,N
1570304955.0,286046997.8,N
1570304955.9,286046997.8,N
1570304975.8,286046997.4,N
1570304995.6,286046994.2,N
1570305015.4,286046992.2,Y
1570305035.3,286046993.5,P
1570305055.1,286046994.8,N
1570305075.9,286046992.1,P
1570305095.7,286046993.9,Y
1570305115.5,286047000.1,P
1570305135.4,286046998.1,N
1570305155.2,286046998.6,N
1570305175.0,286047000.7,N
1570305175.9,286047000.7,N
1570305195.8,286047005.9,N
1570305215.6,286047005.6,N
1570305235.5,286047001.5,N
1570305255.3,286047003.9,N
1570305275.1,286047000.3,N
1570305295.9,286046998.9,N
1570305315.7,286046999.3,N
1570305335.5,286046998.9,N
1570305355.4,286047001.5,N
1570305375.2,286046999.3,N
1570305395.1,286046997.3,N
1570305396.0,286046997.3,N
1570305415.8,286047001.8,N
1570305435.6,286047001.4,N
1570305455.5,286047007.0,N
1570305475.3,286047006.8,N
1570305495.2,286047007.2,N
1570305515.9,286047010.4,Y
1570305535.7,286047010.7,P
1570305555.6,286047009.7,N
1570305575.4,286047011.2,N
1570305595.3,286047012.5,Y
